Hlavní strana
METAR-TAF:

METAR-TAF

Letiště :

Sylacauga, Alabama, Spojené státy americké

zeměpisná šířka: 33-10-19N, zeměpisná délka: 086-18-20W, výška: 173 m

Aktuální stav počasí

Zpráva byla vytvořena před 28 minutami, v 23:15 UTC
Bezvětří
Teplota 10°C
Vlhkost vzduchu 71%
Tlak 1017 hPa
Viditelnost: 16.1 km
Zataženo ve výšce 6000 ft

METAR: KSCD 262315Z AUTO 00000KT 10SM OVC060 10/05 A3004 RMK AO2 T00960052

Čas: 17:43 (23:43 UTC)


TAF: chybějící

Stav a předpovědi počasí z více než 4 000 letišť (zprávy METAR a TAF).

Červené a žluté tečky na mapě představují dostupné meteorologické stanice.

Když kurzor umístíte na tečku, zobrazí se název stanice.

Pak kliknutím zobrazíte stav a předpověď počasí.

Chcete-li změnit mapu, kliknutím na zelené tlačítko se znaménkem +mapu přiblížíte, kliknutím na zelené tlačítko se znaménkem – mapu oddálíte a kliknutím na zelené šipky přejdete na sousední mapy.


METAR-TAF: